GW5270 Weather Reports


time (UTC)temp
F
wind
direction
speed
knots
gust
knots
rain 1hr
in
rain 24hr
in
rain mn
in
humidity
%
barometer
mb
20260502163608 49 301 5.2 6.1 0.00 0.00 0.00 53 1017.2
20260502163100 48 346 0.9 8.7 0.00 0.00 0.00 51 1017.1
20260502162556 46 325 4.3 6.1 0.00 0.00 0.00 56 1017.3
20260502162054 46 338 4.3 7.0 0.00 0.00 0.00 58 1017.2
20260502161550 46 282 5.2 7.8 0.00 0.00 0.00 56 1017.4
20260502161048 47 10 3.5 8.7 0.00 0.00 0.00 54 1017.4
20260502160546 47 295 2.6 8.7 0.00 0.00 0.00 57 1017.4
20260502151958 45 318 1.7 3.5 0.00 0.00 0.00 70 1017.6
20260502151455 45 306 3.5 5.2 0.00 0.00 0.00 66 1017.6
20260502150952 46 318 2.6 6.1 0.00 0.00 0.00 65 1017.7
20260502150449 46 326 1.7 2.6 0.00 0.00 0.00 63 1017.5
20260502130334 42 206 3.5 5.2 0.00 0.00 0.00 85 1017.6
20260502123317 40 277 1.7 2.6 0.00 0.00 0.00 95 1017.7
20260502122814 39 209 0.0 1.7 0.00 0.00 0.00 96 1017.8
20260502122310 38 206 0.9 2.6 0.00 0.00 0.00 97 1017.9
20260502121809 38 275 0.9 2.6 0.00 0.00 0.00 98 1017.8
20260502121306 38 250 0.9 1.7 0.00 0.00 0.00 98 1017.7
20260502120803 38 251 0.9 1.7 0.00 0.00 0.00 98 1017.7
20260502120259 38 255 0.9 1.7 0.00 0.00 0.00 99 1017.8
20260502115757 38 266 0.0 0.9 0.00 0.00 0.00 99 1017.8
20260502115254 38 266 0.9 1.7 0.00 0.00 0.00 99 1017.9
20260502114749 37 266 0.0 0.0 0.00 0.00 0.00 99 1017.9
20260502114246 37 266 0.0 0.9 0.00 0.00 0.00 99 1018.0
20260502113743 37 266 0.0 1.7 0.00 0.00 0.00 99 1017.9
20260502113241 37 272 0.0 0.0 0.00 0.00 0.00 99 1017.9
20260502112739 37 272 0.0 0.0 0.00 0.00 0.00 99 1017.7
20260502112237 37 272 0.0 0.0 0.00 0.00 0.00 99 1017.6
20260502111733 37 272 0.0 0.0 0.00 0.00 0.00 99 1017.6
20260502111231 37 272 0.0 0.0 0.00 0.00 0.00 99 1017.9
20260502110728 37 274 0.0 0.0 0.00 0.00 0.00 99 1017.9
20260502110226 37 274 0.0 0.0 0.00 0.00 0.00 99 1017.9
20260502105724 37 274 0.0 0.0 0.00 0.00 0.00 99 1017.9
20260502105220 36 274 0.0 0.0 0.00 0.00 0.00 99 1017.8
20260502104718 36 274 0.0 0.0 0.00 0.00 0.00 99 1018.1
20260502104215 35 274 0.0 0.0 0.00 0.00 0.00 99 1017.9
20260502103713 35 274 0.0 0.0 0.00 0.00 0.00 98 1017.8
20260502103210 35 274 0.0 0.0 0.00 0.00 0.00 99 1017.8
20260502102707 35 274 0.0 0.0 0.00 0.00 0.00 98 1017.8
20260502102204 35 274 0.0 0.0 0.00 0.00 0.00 98 1017.9
20260502101702 34 274 0.0 0.0 0.00 0.00 0.00 98 1018.1
20260502101159 34 274 0.0 0.0 0.00 0.00 0.00 98 1018.0
20260502100658 34 274 0.0 0.0 0.00 0.00 0.00 98 1017.9
20260502100156 35 274 0.0 0.0 0.00 0.00 0.00 98 1017.7
20260502091130 37 272 0.0 0.0 0.00 0.00 0.00 98 1017.7
20260502090626 37 272 0.0 0.0 0.00 0.00 0.00 98 1017.8
20260502090124 37 272 0.0 0.0 0.00 0.00 0.00 98 1017.9
20260502071521 36 304 0.0 0.0 0.00 0.00 0.00 94 1017.5
20260502071020 37 304 0.0 0.0 0.00 0.00 0.00 93 1017.5
20260502070517 37 304 0.0 0.0 0.00 0.00 0.00 93 1017.6
20260502070015 38 304 0.0 0.0 0.00 0.00 0.00 92 1017.6
20260502065514 38 303 0.9 0.9 0.00 0.00 0.00 91 1017.4
20260502065011 39 303 0.0 0.9 0.00 0.00 0.00 91 1017.7
20260502064509 40 318 1.7 2.6 0.00 0.00 0.00 90 1017.6
20260502064006 40 316 0.9 1.7 0.00 0.00 0.00 90 1017.5
20260502063504 40 316 1.7 2.6 0.00 0.00 0.00 89 1017.8
20260502063001 40 308 1.7 3.5 0.00 0.00 0.00 89 1017.8
20260502062458 40 298 1.7 2.6 0.00 0.00 0.00 89 1017.6
20260502061957 40 299 2.6 3.5 0.00 0.00 0.00 89 1017.8
20260502061454 40 320 1.7 3.5 0.00 0.00 0.00 89 1017.7
20260502060949 40 314 2.6 3.5 0.00 0.00 0.00 89 1017.9
20260502060445 40 320 1.7 3.5 0.00 0.00 0.00 89 1018.0
20260502055942 40 302 1.7 1.7 0.00 0.00 0.00 88 1017.8
20260502055440 40 309 0.9 3.5 0.00 0.00 0.00 88 1018.0
20260502054934 40 300 0.0 2.6 0.00 0.00 0.00 88 1017.7
20260502054432 40 290 1.7 2.6 0.00 0.00 0.00 88 1017.8
20260502053929 40 303 0.9 1.7 0.00 0.00 0.00 88 1017.7
20260502053426 40 308 1.7 2.6 0.00 0.00 0.00 87 1017.9
20260502052924 41 319 1.7 3.5 0.00 0.00 0.00 87 1018.0
20260502052422 41 320 1.7 2.6 0.00 0.00 0.00 87 1018.1
20260502051919 41 333 1.7 2.6 0.00 0.00 0.00 86 1018.2
20260502051418 41 316 1.7 1.7 0.00 0.00 0.00 87 1018.2
20260502050914 40 274 1.7 1.7 0.00 0.00 0.00 88 1018.1
20260502050410 40 274 0.0 1.7 0.00 0.00 0.00 87 1018.0
20260502045908 40 306 1.7 1.7 0.00 0.00 0.00 87 1018.0
20260502045405 41 298 0.9 1.7 0.00 0.00 0.00 86 1018.0
20260502044901 41 323 0.0 0.9 0.00 0.00 0.00 86 1018.1
20260502044357 41 311 1.7 1.7 0.00 0.00 0.00 86 1017.9
20260502043854 41 325 1.7 5.2 0.00 0.00 0.00 85 1018.1
20260502043352 41 315 1.7 1.7 0.00 0.00 0.00 85 1017.7
20260502042851 42 322 0.9 1.7 0.00 0.00 0.00 84 1017.8
20260502042349 42 325 2.6 2.6 0.00 0.00 0.00 83 1017.9
20260502041846 42 280 2.6 5.2 0.00 0.00 0.00 83 1017.9
20260502041343 42 337 2.6 5.2 0.00 0.00 0.00 83 1017.6
20260502040841 42 329 1.7 5.2 0.00 0.00 0.00 83 1017.8
20260502040337 42 256 0.9 3.5 0.00 0.00 0.00 83 1017.7
20260502035833 42 298 1.7 1.7 0.00 0.03 0.03 83 1018.1
20260502035330 42 322 1.7 2.6 0.00 0.03 0.03 84 1017.8
20260502034828 42 341 0.9 2.6 0.00 0.03 0.03 84 1017.4
20260502034326 43 333 0.9 3.5 0.00 0.03 0.03 84 1017.5
20260502033824 43 337 1.7 3.5 0.00 0.03 0.03 83 1017.7
20260502033321 43 7 5.2 6.1 0.00 0.03 0.03 82 1017.8
20260502032818 43 306 2.6 9.6 0.00 0.03 0.03 83 1018.0
20260502032314 43 325 3.5 7.0 0.00 0.03 0.03 84 1017.8
20260502031812 43 6 2.6 3.5 0.00 0.03 0.03 84 1017.7
20260502031310 44 331 2.6 2.6 0.00 0.03 0.03 86 1017.6
20260502030808 44 348 0.9 3.5 0.00 0.03 0.03 87 1017.6
20260502030306 44 324 4.3 6.1 0.00 0.03 0.03 87 1017.4
20260502025803 44 324 6.1 7.8 0.00 0.03 0.03 88 1017.5
20260502025301 45 340 4.3 6.1 0.00 0.03 0.03 88 1017.4
20260502024758 45 336 1.7 3.5 0.00 0.03 0.03 89 1017.4
20260502024256 45 320 3.5 5.2 0.00 0.03 0.03 89 1017.4
20260502023754 45 331 2.6 3.5 0.00 0.03 0.03 88 1017.4
20260502023251 45 295 3.5 6.1 0.00 0.03 0.03 88 1017.1
20260502022749 45 281 0.9 2.6 0.00 0.03 0.03 89 1017.2
20260502022244 45 312 1.7 7.8 0.00 0.03 0.03 89 1017.0
20260502021742 46 299 0.9 1.7 0.00 0.03 0.03 90 1017.3
20260502021239 46 298 3.5 5.2 0.00 0.03 0.03 89 1017.2
20260502020736 46 293 3.5 3.5 0.00 0.03 0.03 89 1017.2
20260502020233 46 197 3.5 7.0 0.00 0.03 0.03 88 1017.2
20260502015731 45 229 3.5 5.2 0.00 0.03 0.03 89 1017.0
20260502015227 45 297 0.9 1.7 0.00 0.03 0.03 90 1016.9
20260502014725 46 257 0.9 1.7 0.00 0.03 0.03 91 1016.8
20260502014222 46 240 1.7 2.6 0.00 0.03 0.03 90 1016.5
20260502013718 46 234 1.7 3.5 0.00 0.03 0.03 89 1016.5
20260502013213 45 253 1.7 2.6 0.00 0.03 0.03 89 1016.4
20260502012711 45 300 0.9 3.5 0.00 0.03 0.03 90 1016.5
20260502012209 46 240 0.0 1.7 0.00 0.03 0.03 90 1016.3
20260502011705 46 267 0.9 3.5 0.00 0.03 0.03 89 1016.4
20260502011201 45 279 2.6 5.2 0.07 0.03 0.03 89 1016.8
20260502010659 46 250 0.9 1.7 0.07 0.03 0.03 90 1016.4
20260502010154 46 269 0.9 1.7 0.00 0.02 0.02 90 1016.3
20260502005652 46 311 0.0 2.6 0.00 0.02 0.02 89 1016.3
20260502005150 46 278 0.0 0.9 0.00 0.02 0.02 89 1016.0
20260502004646 46 258 1.7 2.6 0.00 0.02 0.02 88 1015.9
20260502004142 46 311 1.7 2.6 0.05 0.02 0.02 88 1015.8
20260502003641 46 209 1.7 2.6 0.05 0.02 0.02 89 1015.8
20260502003138 46 274 0.0 0.9 0.00 0.01 0.01 88 1015.7
20260502002633 46 281 0.0 0.9 0.00 0.01 0.01 86 1015.8
20260502002131 46 310 1.7 2.6 0.00 0.01 0.01 84 1015.5
20260502001629 46 282 1.7 1.7 0.00 0.01 0.01 84 1015.6
20260502001126 46 268 1.7 3.5 0.00 0.01 0.01 84 1015.5
20260502000624 46 284 1.7 3.5 0.00 0.01 0.01 85 1015.3
20260502000121 47 259 0.0 1.7 0.00 0.01 0.01 85 1015.1
20260501235617 47 304 1.7 1.7 0.00 0.01 0.01 84 1015.3
20260501235113 47 304 2.6 2.6 0.00 0.01 0.01 82 1015.2
20260501234608 47 276 1.7 6.1 0.00 0.01 0.01 81 1015.0
20260501234106 47 262 0.0 2.6 0.00 0.01 0.01 83 1015.0
20260501233604 48 275 2.6 3.5 0.07 0.01 0.01 82 1014.9
20260501233101 48 338 1.7 5.2 0.00 0.00 0.00 80 1014.9
20260501232557 49 317 2.6 6.1 0.00 0.00 0.00 78 1015.0
20260501232054 49 4 5.2 7.8 0.00 0.00 0.00 75 1014.9
20260501231552 49 297 3.5 7.8 0.00 0.00 0.00 75 1015.1
20260501231050 49 309 3.5 7.0 0.00 0.00 0.00 75 1014.8
20260501230549 49 304 1.7 3.5 0.00 0.00 0.00 76 1014.7
20260501230046 50 319 2.6 5.2 0.00 0.00 0.00 75 1014.8
20260501225543 50 241 5.2 7.0 0.00 0.00 0.00 75 1014.8
20260501225039 50 334 8.7 9.6 0.00 0.00 0.00 75 1014.9
20260501224537 50 31 3.5 7.8 0.00 0.00 0.00 76 1014.8
20260501224034 50 329 3.5 7.8 0.00 0.00 0.00 75 1014.7
20260501223531 50 337 4.3 11.3 0.00 0.00 0.00 74 1014.9
20260501223027 51 310 3.5 9.6 0.00 0.00 0.00 73 1014.5
20260501222523 51 316 6.1 11.3 0.00 0.00 0.00 73 1014.5
20260501222020 51 270 7.0 11.3 0.00 0.00 0.00 70 1014.4
20260501221516 51 339 6.1 9.6 0.00 0.00 0.00 71 1014.4
20260501221015 51 318 10.4 13.0 0.00 0.00 0.00 69 1014.3
20260501220512 52 309 10.4 13.0 0.00 0.00 0.00 68 1014.3
20260501220009 53 332 5.2 12.2 0.00 0.00 0.00 66 1014.4
20260501215505 53 302 7.8 11.3 0.00 0.00 0.00 64 1014.2
20260501215000 53 300 8.7 11.3 0.00 0.00 0.00 62 1014.2
20260501214455 54 311 8.7 13.0 0.00 0.00 0.00 61 1013.9
20260501213951 55 346 5.2 12.2 0.00 0.00 0.00 59 1013.8
20260501213449 55 330 7.8 13.0 0.00 0.00 0.00 56 1013.8
20260501212943 56 305 10.4 12.2 0.00 0.00 0.00 50 1013.4
20260501212441 56 334 9.6 13.0 0.00 0.00 0.00 48 1013.3
20260501211938 57 344 4.3 13.0 0.00 0.00 0.00 49 1013.2
20260501211435 57 342 9.6 15.6 0.00 0.00 0.00 47 1013.2
20260501210933 58 347 7.0 11.3 0.00 0.00 0.00 42 1013.2
20260501210429 58 329 5.2 12.2 0.00 0.00 0.00 41 1012.9
20260501205926 59 269 6.1 11.3 0.00 0.00 0.00 40 1012.8
20260501205423 59 310 1.7 8.7 0.00 0.00 0.00 44 1012.6
20260501204921 60 321 8.7 11.3 0.00 0.00 0.00 40 1012.6
20260501204416 60 283 1.7 7.8 0.00 0.00 0.00 42 1012.4
20260501203913 62 317 5.2 13.9 0.00 0.00 0.00 37 1012.6
20260501203410 62 278 1.7 6.1 0.00 0.00 0.00 40 1012.4
20260501202907 62 313 7.0 12.2 0.00 0.00 0.00 36 1012.6
20260501202404 62 299 3.5 8.7 0.00 0.00 0.00 33 1012.2
20260501201901 61 312 4.3 8.7 0.00 0.00 0.00 34 1012.6
20260501201358 62 328 6.1 13.9 0.00 0.00 0.00 37 1012.6
20260501200854 62 236 1.7 3.5 0.00 0.00 0.00 37 1012.6
20260501200351 61 306 3.5 7.8 0.00 0.00 0.00 40 1012.6
20260501195849 63 335 6.1 8.7 0.00 0.00 0.00 35 1012.7
20260501195344 60 321 3.5 9.6 0.00 0.00 0.00 36 1012.7
20260501194840 59 246 2.6 5.2 0.00 0.00 0.00 38 1012.8
20260501194336 60 306 5.2 7.8 0.00 0.00 0.00 36 1013.0
20260501193833 61 302 6.1 11.3 0.00 0.00 0.00 33 1012.9
20260501193332 61 263 3.5 11.3 0.00 0.00 0.00 37 1013.1
20260501192829 60 301 4.3 7.8 0.00 0.00 0.00 33 1013.0
20260501192326 59 306 8.7 12.2 0.00 0.00 0.00 33 1013.0
20260501191822 60 287 6.1 14.8 0.00 0.00 0.00 33 1013.2
20260501191320 61 318 3.5 11.3 0.00 0.00 0.00 36 1013.2
20260501190816 60 254 6.1 12.2 0.00 0.00 0.00 33 1013.2
20260501190312 61 311 3.5 7.0 0.00 0.00 0.00 39 1013.1
20260501185808 61 339 5.2 11.3 0.00 0.00 0.00 34 1013.1
20260501185306 61 299 6.1 7.8 0.00 0.00 0.00 37 1013.1
20260501184800 60 329 5.2 7.8 0.00 0.00 0.00 39 1013.3
20260501184255 60 242 3.5 5.2 0.00 0.00 0.00 38 1013.0
20260501183751 59 305 5.2 12.2 0.00 0.00 0.00 34 1013.2
20260501183249 59 233 3.5 13.9 0.00 0.00 0.00 38 1013.3
20260501182745 59 319 7.8 12.2 0.00 0.00 0.00 32 1013.4
20260501182243 60 304 7.0 8.7 0.00 0.00 0.00 37 1013.3
20260501181739 61 270 2.6 12.2 0.00 0.00 0.00 41 1013.2
20260501181236 61 267 5.2 7.8 0.00 0.00 0.00 41 1013.4
20260501180734 61 278 0.9 3.5 0.00 0.00 0.00 49 1013.2
20260501180229 60 276 1.7 6.1 0.00 0.00 0.00 48 1013.1
20260501175727 59 277 2.6 7.8 0.00 0.00 0.00 55 1013.5
20260501175224 60 225 0.9 2.6 0.00 0.00 0.00 46 1013.6
20260501174720 59 236 1.7 5.2 0.00 0.00 0.00 54 1013.5
20260501174218 59 343 4.3 6.1 0.00 0.00 0.00 50 1013.5
20260501173715 59 282 3.5 5.2 0.00 0.00 0.00 48 1013.5
20260501173212 59 212 4.3 6.1 0.00 0.00 0.00 49 1013.7
20260501172708 57 249 2.6 6.1 0.00 0.00 0.00 55 1013.7
20260501172203 57 278 3.5 5.2 0.00 0.00 0.00 56 1013.7
20260501171659 57 252 1.7 3.5 0.00 0.00 0.00 50 1013.7
20260501171157 57 297 2.6 3.5 0.00 0.00 0.00 56 1014.0
20260501170653 58 275 0.0 5.2 0.00 0.00 0.00 50 1013.9
20260501170150 57 257 1.7 5.2 0.00 0.00 0.00 52 1013.9
20260501165648 58 261 3.5 5.2 0.00 0.00 0.00 51 1013.9
20260501165145 58 205 3.5 7.0 0.00 0.00 0.00 52 1014.1
20260501164644 58 238 1.7 3.5 0.00 0.00 0.00 52 1014.2
20260501164140 57 207 2.6 5.2 0.00 0.00 0.00 57 1014.3